South Lake Tahoe, CA

7:48 AM PST on February 23, 2017 (GMT -0800)
Montgomery Estates | | Change Station
Active Advisory: Hydrologic Statement

Elev 6542 ft 38.90 °N, 119.96 °W | Updated 6 seconds ago

Overcast
Overcast
19.0 °F
Feels Like 19 °F
N
0.0
Wind Variable Wind from South
Gusts 0.0 mph

Today
High -- | Low -- °F
--% Chance of Precip.
Yesterday
High -- | Low -- °F
Precip. -- in
Pressure 30.04 in
Visibility 10.0 miles
Clouds Few 3000 ft
Mostly Cloudy 5000 ft
Overcast 7000 ft
Windchill 19 °F
Dew Point 10 °F
Humidity 67%
Rainfall 0.00 in
Snow Depth Not available.
6:40 AM 5:46 PM
Waning Crescent, 10% visible
METAR KTVL 231453Z AUTO 00000KT 10SM FEW030 BKN050 OVC070 M08/M09 A2993 RMK AO2 SNE46 SLP170 P0000 60003 T10781094 53006
Pressure 30.04 in
Visibility 10.0 miles
Clouds Few 3000 ft
Mostly Cloudy 5000 ft
Overcast 7000 ft
Windchill 19 °F
Dew Point 10 °F
Humidity 67%
Rainfall 0.00 in
Snow Depth Not available.
6:40 AM 5:46 PM
Waning Crescent, 10% visible
METAR KTVL 231453Z AUTO 00000KT 10SM FEW030 BKN050 OVC070 M08/M09 A2993 RMK AO2 SNE46 SLP170 P0000 60003 T10781094 53006

Get Your Daily Forecast Email!

Thanks for signing up!

Be on the lookout for a verification email in your inbox.

You'll start receiving the daily forecast at 8 AM.

×

10-Day Weather Forecast

Almanac

Astronomy

Feb. 23, 2017 Rise Set
Actual Time
Civil Twilight
Nautical Twilight
Astronomical Twilight
Moon
Length of Visible Light
Length of Day
Tomorrow will be .
, % of the Moon is Illuminated

Today's Extremes

State Highs State Lows

Community

WunderPhotos

Upload Photos

1,962,540 photos uploaded!

WunderBlog® & News

Nearby

Air Quality

  Air Quality AQ Index Pollutant
Not available.

Snow Depth

Station Depth Elevation

Earthquake Activity

City Distance Mag. Time & Date
Minimum magnitude displayed is 2.5.

Coastal Water Temperatures

Place Temperature

Stations

Nearby Weather Stations

Station Location Temp. Windchill Dew Point Humidity Wind Precip. Elev Updated Type
                   

Watches & Warnings

Hydrologic Statement
Issued: 8:46 PM PST Feb. 22, 2017 – National Weather Service

Forecast information for
Cosumnes river at Michigan Bar.
* At 7:30 PM Wednesday the stage was 8.8 feet.
* Forecast to recede to near 7.5 ft tomorrow evening then forecast to
fluctuate near 7.5 ft thru late tomorrow evening.
* Flood stage 12.0 ft
* monitor stage 7.0 ft
* impact... near 8.0 feet, low lying lands along the river begin to
flood.

&&

Lat... Lon 3848 12133 3859 12103 3842 12092 3836 12124